Weather History for Sheridan, WY

Change the Weather History Date:

Thursday, March 7, 2013

  Actual Average Record
Temperature  
Mean Temperature 36 °F 32 °F  
Max Temperature 48 °F 45 °F 65 °F (1986)
Min Temperature 23 °F 19 °F -16 °F (1920)
Degree Days  
Heating Degree Days 29 33  
Month to date heating degree days 236 236  
Since 1 July heating degree days 5559 5771  
Cooling Degree Days 0 0  
Month to date cooling degree days 0 0  
Year to date cooling degree days 0 0  
Moisture  
Dew Point 22 °F    
Average Humidity 55    
Maximum Humidity 81    
Minimum Humidity 28    
Precipitation  
Precipitation 0.00 in 0.03 in 0.15 in (2000)
Month to date precipitation 0.01 0.17  
Year to date precipitation 1.76 1.27  
Sea Level Pressure  
Sea Level Pressure 30.01 in    
Wind  
Wind Speed 4 mph (SSW)    
Max Wind Speed 10 mph    
Max Gust Speed 20 mph    
Visibility 10 miles    
Events      
T = Trace of Precipitation, MM = Missing Value Source: NWS Daily Summary

Daily Weather History Graph

Daily Weather History Graph

Search for Another Location

Airport:

Trip Planner

Search our weather history database for the weather conditions in past years. The results will help you decide how hot, cold, wet, or windy it might be!

Date:

Astronomy

Mar. 07, 2013 Rise Set
Actual Time 6:34 AM MST 6:03 PM MST
Civil Twilight 6:05 AM MST 6:33 PM MST
Nautical Twilight 5:31 AM MST 7:07 PM MST
Astronomical Twilight 4:57 AM MST 7:41 PM MST
Moon 3:45 AM MST (3/7) 1:46 PM MST (3/7)
Length of Visible Light 12h 28m
Length of Day
11h 29m
Waning Crescent, 19% of the Moon is Illuminated
Mar 7
Waning Crescent
Mar 11
New
Mar 19
First Quarter
Mar 27
Full
Apr 2
Last Quarter

Hourly Weather History & Observations

Time (MST) Temp. Windchill Dew Point Humidity Pressure Visibility Wind Dir Wind Speed Gust Speed Precip Events Conditions
12:53 AM 26.1 °F - 21.0 °F 81% 29.85 in 10.0 mi Calm Calm - N/A   Clear
1:53 AM 25.0 °F 19.3 °F 19.9 °F 81% 29.87 in 10.0 mi Variable 4.6 mph - N/A   Clear
2:53 AM 24.1 °F 15.2 °F 19.9 °F 84% 29.86 in 10.0 mi WSW 8.1 mph - N/A   Clear
3:53 AM 25.0 °F 17.1 °F 19.9 °F 81% 29.86 in 10.0 mi SSW 6.9 mph - N/A   Clear
4:53 AM 28.9 °F 23.9 °F 21.9 °F 75% 29.87 in 10.0 mi SW 4.6 mph - N/A   Clear
5:53 AM 25.0 °F 18.1 °F 19.9 °F 81% 29.95 in 10.0 mi NE 5.8 mph - N/A   Clear
6:53 AM 26.1 °F 18.4 °F 19.9 °F 78% 29.99 in 10.0 mi SE 6.9 mph - N/A   Clear
7:53 AM 30.9 °F 24.3 °F 23.0 °F 72% 30.01 in 10.0 mi South 6.9 mph - N/A   Clear
8:53 AM 35.1 °F 31.0 °F 25.0 °F 67% 30.00 in 10.0 mi WSW 4.6 mph - N/A   Clear
9:53 AM 37.0 °F 34.5 °F 25.0 °F 62% 30.01 in 10.0 mi SSE 3.5 mph - N/A   Clear
10:53 AM 41.0 °F - 24.1 °F 51% 30.04 in 10.0 mi Calm Calm - N/A   Clear
11:53 AM 42.1 °F 40.2 °F 23.0 °F 47% 30.05 in 10.0 mi SW 3.5 mph - N/A   Clear
12:53 PM 45.0 °F 42.6 °F 21.0 °F 39% 30.04 in 10.0 mi SW 4.6 mph - N/A   Clear
1:53 PM 46.9 °F - 16.0 °F 29% 30.04 in 10.0 mi Calm Calm - N/A   Clear
2:53 PM 46.0 °F - 17.1 °F 31% 30.05 in 10.0 mi Calm Calm - N/A   Clear
3:53 PM 44.1 °F 42.5 °F 19.9 °F 38% 30.05 in 10.0 mi SW 3.5 mph - N/A   Clear
4:53 PM 37.0 °F 31.6 °F 27.0 °F 67% 30.07 in 10.0 mi WSW 6.9 mph - N/A   Clear
5:53 PM 36.0 °F 31.1 °F 24.1 °F 62% 30.09 in 10.0 mi West 5.8 mph - N/A   Clear
6:53 PM 34.0 °F 31.0 °F 24.1 °F 67% 30.11 in 10.0 mi SSW 3.5 mph - N/A   Clear
7:53 PM 34.0 °F 31.0 °F 23.0 °F 64% 30.11 in 10.0 mi SW 3.5 mph - N/A   Clear
8:53 PM 30.9 °F - 24.1 °F 76% 30.11 in 10.0 mi Calm Calm - N/A   Mostly Cloudy
9:53 PM 34.0 °F 28.8 °F 21.9 °F 61% 30.10 in 10.0 mi SE 5.8 mph - N/A   Clear
10:53 PM 35.1 °F 27.9 °F 24.1 °F 64% 30.08 in 10.0 mi SSE 9.2 mph - N/A   Clear
11:53 PM 33.1 °F 26.1 °F 24.1 °F 70% 30.07 in 10.0 mi SE 8.1 mph - N/A   Clear